Weather in Smyshlyayevka

Russia / Ulyanovsk Oblast     53°45′17″N   47°43′50″E
temp.,
°C
wind,
m/s
gust,
m/s
humid.,
%
clouds,
%
prec.,
mm/h
press.,
hPa
HPBL,
m
10 may, mon
mon1001:00+14se3671100 0.0 1012110
04:00+13nw2273100 0.0 101421
07:00+14e3774100 0.0 1014212
10:00+19se4857100 0.0 1015537
13:00+22se5844100 0.0 10161314
16:00+24e6741100 0.0 10172445
19:00+20ene61254100 0.0 1018400
22:00+18ene51356100 0.0 1019369
11 may, tue
tue1101:00+16ene41066100 0.0 1020199
04:00+14ene41068100 0.0 1021180
07:00+15e51365100 0.0 1022354
10:00+19e61156100 0.0 1023637
13:00+22ese71043100 0.0 10242074
16:00+21e5948100 0.0 1024849
19:00+18e3960100 0.0 1025199
22:00+16se347089 0.1 102659
12 may, wed
wed1201:00+14nw118771 0.6 102611
04:00+14se1281100 0.7 102628
07:00+15ese257968 0.0 1026165
10:00+16ese4979100 0.0 1027337
13:00+21ese69485 0.0 10261179
16:00+22se784126 0.0 10261664
19:00+20se4954100 0.0 1026324
22:00+15ese34646 0.0 102658
13 may, thu
thu1301:00+14ese396488 0.0 1026154
04:00+13ese36657 0.0 1026106
07:00+15ese4126511 0.0 1026319
10:00+20ese6104773 0.0 1026682
13:00+23se79398 0.0 10251229
16:00+24se683993 0.0 10241491
19:00+22ese495338 0.0 1024274
22:00+18se3115883 0.0 1024206
14 may, fri
fri1401:00+16se346499 0.0 102557
04:00+14se347378 0.3 102556
07:00+16se386674 0.0 1026209
10:00+21sse684666 0.1 1025533
13:00+24sse683878 0.0 10241116
16:00+26sse673424 0.1 10241553
19:00+23sse37515 0.0 1023167
22:00+18sse35565 0.0 102364